Tracking 35237 objects as of 5-Sep-2026
HD Live streaming from Space Station
objects crossing your sky now

TITAN 3C TRANSTAGE R/B


NORAD ID: 2868
Int'l Code: 1967-066G
Launch date: July 1, 1967
Source: United States (US)
Launch site: AIR FORCE EASTERN TEST RANGE (AFETR)

Note: This is a ROCKET BODY
Your satellite tracking list
Your tracking list is empty




NASA's NSSDC Master Catalog

Two Line Element Set (TLE):
1  2868U 67066G   26247.79726088 -.00000098  00000-0  00000+0 0  9994
2  2868   2.5350  95.3005 0083257 178.9124 293.8718  1.08907969129201
Source of the keplerian elements: AFSPC